• Em Portugal
  • Lista de países
  • Para 7 dias
  • Temperatura da água
  • Mapas de satélite
  • Mapa do tempo
  • Widgets de tempo
  • user-avatar
    Iniciar Sessão

    Previsão horária em Bansko

    Hoje, 20 Outubro, Sábado

    Tempo Temperatura Precipitação Vento Pressão Humidade
    00:00 +14°C° 0 mm 1 m/s 722 mmHg 80%
    01:00 +13°C° 0 mm 1 m/s 722 mmHg 81%
    02:00 +13°C° 0 mm 1 m/s 722 mmHg 82%
    03:00 +13°C° 0 mm 1 m/s 722 mmHg 83%
    04:00 +13°C° 0 mm 1 m/s 722 mmHg 83%
    05:00 +12°C° 0 mm 1 m/s 722 mmHg 83%
    06:00 +13°C° 0 mm 1 m/s 722 mmHg 80%
    07:00 +14°C° 0 mm 1 m/s 723 mmHg 77%
    08:00 +14°C° 0 mm 1 m/s 723 mmHg 74%
    09:00 +16°C° 0.1 mm 2 m/s 723 mmHg 67%
    10:00 +17°C° 0.1 mm 2 m/s 723 mmHg 61%
    11:00 +18°C° 0.1 mm 2 m/s 723 mmHg 55%
    12:00 +19°C° 0.1 mm 2 m/s 723 mmHg 52%
    13:00 +20°C° 0.1 mm 3 m/s 723 mmHg 50%
    14:00 +20°C° 0.1 mm 3 m/s 723 mmHg 47%
    15:00 +19°C° 0.1 mm 3 m/s 723 mmHg 50%
    16:00 +19°C° 0.1 mm 2 m/s 723 mmHg 53%
    17:00 +18°C° 0.1 mm 2 m/s 723 mmHg 56%
    18:00 +16°C° 0 mm 2 m/s 723 mmHg 63%
    19:00 +15°C° 0 mm 2 m/s 723 mmHg 70%
    20:00 +13°C° 0 mm 2 m/s 723 mmHg 78%
    21:00 +12°C° 0 mm 1 m/s 723 mmHg 80%
    22:00 +12°C° 0 mm 1 m/s 723 mmHg 83%
    23:00 +11°C° 0 mm 1 m/s 723 mmHg 85%

    Amanhã, 21 Outubro, Domingo

    Tempo Temperatura Precipitação Vento Pressão Humidade
    00:00 +11°C° 0 mm 1 m/s 723 mmHg 86%
    01:00 +11°C° 0 mm 1 m/s 723 mmHg 87%
    02:00 +11°C° 0 mm 1 m/s 723 mmHg 88%
    03:00 +10°C° 0 mm 1 m/s 723 mmHg 88%
    04:00 +10°C° 0 mm 1 m/s 722 mmHg 89%
    05:00 +10°C° 0 mm 1 m/s 722 mmHg 89%
    06:00 +11°C° 0 mm 1 m/s 722 mmHg 85%
    07:00 +11°C° 0 mm 1 m/s 723 mmHg 82%
    08:00 +12°C° 0 mm 1 m/s 723 mmHg 78%
    09:00 +14°C° 0 mm 1 m/s 723 mmHg 70%
    10:00 +16°C° 0 mm 1 m/s 723 mmHg 62%
    11:00 +18°C° 0 mm 1 m/s 723 mmHg 54%
    12:00 +19°C° 0 mm 1 m/s 722 mmHg 53%
    13:00 +18°C° 0 mm 2 m/s 722 mmHg 53%
    14:00 +18°C° 0 mm 2 m/s 722 mmHg 52%
    15:00 +17°C° 0.1 mm 2 m/s 722 mmHg 55%
    16:00 +17°C° 0.1 mm 2 m/s 721 mmHg 58%
    17:00 +16°C° 0.1 mm 2 m/s 721 mmHg 61%
    18:00 +15°C° 0 mm 2 m/s 722 mmHg 68%
    19:00 +13°C° 0 mm 1 m/s 722 mmHg 74%
    20:00 +12°C° 0 mm 1 m/s 722 mmHg 80%
    21:00 +12°C° 0 mm 1 m/s 722 mmHg 83%
    22:00 +11°C° 0 mm 1 m/s 723 mmHg 85%
    23:00 +11°C° 0 mm 1 m/s 723 mmHg 87%

    Depois de amanhã, 22 Outubro, Segunda-feira

    Tempo Temperatura Precipitação Vento Pressão Humidade
    00:00 +11°C° 0.1 mm 1 m/s 723 mmHg 88%
    01:00 +11°C° 0.1 mm 1 m/s 723 mmHg 89%
    02:00 +11°C° 0.1 mm 1 m/s 723 mmHg 90%
    03:00 +10°C° 0 mm 1 m/s 723 mmHg 90%
    04:00 +10°C° 0 mm 1 m/s 722 mmHg 91%
    05:00 +10°C° 0 mm 1 m/s 722 mmHg 91%
    06:00 +11°C° 0 mm 1 m/s 722 mmHg 88%
    07:00 +11°C° 0 mm 1 m/s 723 mmHg 86%
    08:00 +12°C° 0 mm 1 m/s 723 mmHg 83%
    09:00 +14°C° 0 mm 1 m/s 723 mmHg 75%
    10:00 +15°C° 0 mm 1 m/s 723 mmHg 67%
    11:00 +18°C° 0 mm 1 m/s 723 mmHg 59%
    12:00 +18°C° 0 mm 1 m/s 723 mmHg 57%
    13:00 +19°C° 0 mm 1 m/s 722 mmHg 56%
    14:00 +19°C° 0 mm 1 m/s 722 mmHg 54%
    15:00 +18°C° 0 mm 1 m/s 721 mmHg 58%
    16:00 +18°C° 0 mm 1 m/s 721 mmHg 61%
    17:00 +16°C° 0 mm 1 m/s 721 mmHg 64%
    18:00 +15°C° 0 mm 1 m/s 721 mmHg 70%
    19:00 +14°C° 0 mm 1 m/s 721 mmHg 76%
    20:00 +13°C° 0 mm 1 m/s 721 mmHg 81%
    21:00 +12°C° 0 mm 1 m/s 721 mmHg 83%
    22:00 +12°C° 0 mm 1 m/s 721 mmHg 85%
    23:00 +12°C° 0 mm 1 m/s 721 mmHg 87%

    23 Outubro, Terça-feira

    Tempo Temperatura Precipitação Vento Pressão Humidade
    00:00 +12°C° 0.1 mm 1 m/s 721 mmHg 88%
    01:00 +12°C° 0.1 mm 1 m/s 721 mmHg 88%
    02:00 +12°C° 0.1 mm 1 m/s 721 mmHg 89%
    03:00 +11°C° 0.2 mm 1 m/s 720 mmHg 89%
    04:00 +11°C° 0.2 mm 1 m/s 720 mmHg 89%
    05:00 +11°C° 0.2 mm 1 m/s 720 mmHg 90%
    06:00 +12°C° 0.2 mm 1 m/s 720 mmHg 88%
    07:00 +12°C° 0.2 mm 1 m/s 720 mmHg 87%
    08:00 +12°C° 0.2 mm 2 m/s 720 mmHg 85%
    09:00 +13°C° 0.3 mm 2 m/s 721 mmHg 80%
    10:00 +14°C° 0.3 mm 2 m/s 721 mmHg 75%
    11:00 +15°C° 0.3 mm 2 m/s 721 mmHg 70%
    12:00 +15°C° 0.4 mm 2 m/s 720 mmHg 70%
    13:00 +15°C° 0.4 mm 2 m/s 720 mmHg 69%
    14:00 +15°C° 0.4 mm 2 m/s 720 mmHg 69%
    15:00 +14°C° 0.4 mm 2 m/s 720 mmHg 72%
    16:00 +14°C° 0.4 mm 2 m/s 720 mmHg 76%
    17:00 +13°C° 0.4 mm 2 m/s 720 mmHg 79%
    18:00 +13°C° 0.4 mm 2 m/s 720 mmHg 81%
    19:00 +12°C° 0.4 mm 2 m/s 720 mmHg 84%
    20:00 +12°C° 0.4 mm 2 m/s 720 mmHg 86%
    21:00 +12°C° 0.4 mm 2 m/s 720 mmHg 87%
    22:00 +12°C° 0.4 mm 2 m/s 720 mmHg 88%
    23:00 +10°C° 0.4 mm 2 m/s 720 mmHg 89%

    24 Outubro, Quarta-feira

    Tempo Temperatura Precipitação Vento Pressão Humidade
    00:00 +10°C° 0.5 mm 2 m/s 719 mmHg 89%
    01:00 +10°C° 0.5 mm 2 m/s 719 mmHg 90%
    02:00 +10°C° 0.5 mm 2 m/s 719 mmHg 90%
    03:00 +10°C° 0.2 mm 2 m/s 718 mmHg 90%
    04:00 +10°C° 0.2 mm 2 m/s 718 mmHg 90%
    05:00 +10°C° 0.2 mm 2 m/s 718 mmHg 90%
    06:00 +10°C° 0 mm 2 m/s 718 mmHg 89%
    07:00 +10°C° 0 mm 2 m/s 718 mmHg 87%
    08:00 +10°C° 0 mm 2 m/s 718 mmHg 86%
    09:00 +12°C° 0 mm 2 m/s 717 mmHg 78%
    10:00 +13°C° 0 mm 3 m/s 717 mmHg 71%
    11:00 +14°C° 0 mm 3 m/s 717 mmHg 64%
    12:00 +16°C° 0 mm 3 m/s 717 mmHg 59%
    13:00 +17°C° 0 mm 3 m/s 716 mmHg 54%
    14:00 +17°C° 0 mm 3 m/s 715 mmHg 49%
    15:00 +17°C° 0 mm 3 m/s 715 mmHg 49%
    16:00 +16°C° 0 mm 3 m/s 715 mmHg 48%
    17:00 +14°C° 0 mm 3 m/s 715 mmHg 48%
    18:00 +12°C° 0 mm 3 m/s 715 mmHg 52%
    19:00 +11°C° 0 mm 3 m/s 715 mmHg 56%
    20:00 +10°C° 0 mm 3 m/s 716 mmHg 60%
    21:00 +9°C° 0 mm 2 m/s 716 mmHg 64%
    22:00 +9°C° 0 mm 2 m/s 716 mmHg 69%
    23:00 +9°C° 0 mm 2 m/s 716 mmHg 73%

    25 Outubro, Quinta-feira

    Tempo Temperatura Precipitação Vento Pressão Humidade
    00:00 +8°C° 0 mm 2 m/s 716 mmHg 74%
    01:00 +8°C° 0 mm 3 m/s 716 mmHg 75%
    02:00 +8°C° 0 mm 3 m/s 716 mmHg 77%
    03:00 +8°C° 0 mm 3 m/s 716 mmHg 77%
    04:00 +8°C° 0 mm 3 m/s 717 mmHg 77%
    05:00 +8°C° 0 mm 3 m/s 717 mmHg 77%
    06:00 +8°C° 0 mm 3 m/s 717 mmHg 75%
    07:00 +8°C° 0 mm 3 m/s 718 mmHg 73%
    08:00 +8°C° 0 mm 3 m/s 719 mmHg 72%
    09:00 +8°C° 0 mm 4 m/s 719 mmHg 64%
    10:00 +9°C° 0 mm 5 m/s 720 mmHg 57%
    11:00 +10°C° 0 mm 5 m/s 720 mmHg 49%
    12:00 +12°C° 0 mm 5 m/s 720 mmHg 47%
    13:00 +12°C° 0 mm 5 m/s 720 mmHg 44%
    14:00 +13°C° 0 mm 5 m/s 720 mmHg 42%
    15:00 +12°C° 0 mm 4 m/s 720 mmHg 45%
    16:00 +12°C° 0 mm 3 m/s 720 mmHg 47%
    17:00 +11°C° 0 mm 3 m/s 720 mmHg 50%
    18:00 +10°C° 0 mm 2 m/s 721 mmHg 57%
    19:00 +8°C° 0 mm 2 m/s 721 mmHg 63%
    20:00 +7°C° 0 mm 2 m/s 722 mmHg 69%
    21:00 +7°C° 0 mm 2 m/s 722 mmHg 72%
    22:00 +7°C° 0 mm 1 m/s 722 mmHg 74%
    23:00 +7°C° 0 mm 1 m/s 723 mmHg 76%
    Mostrar mais